Content
SEND FEEDBACK

Daily
Averages
Monthly
Summary
United States of America

DEDEDO, GUAM


Home > North America > United States > Guam
Elevation: 364 feet     Latitude: 13 33N     Longitude: 144 49E

WEATHER
 
SELECT A DAY
Number of Records: 209,106;   Date Range: 1/1/95 - 8/12/14
 
SHARE

PRINT THIS DATA

[ ← Previous Day ]
WEATHER ALMANAC - JULY 6, 2013
[ Next Day → ]
[ °C ]   °F
Weather ElementAverageHighLow
Temperature84.4 °F89.1 °F (12:54 pm)81 °F (8:54 pm)
Dewpoint75.5 °F77 °F (5:54 am)73.9 °F (7:54 am)
Humidity75.1 %85 % (5:54 am)63 % (11:54 am)
Barometer29.84 in29.89 in (10:54 pm)29.81 in (1:54 am)
Wind Speed5 mph9.2 mph (11:54 am)
Weather ElementAverage
Visibility10 mi
Wind DirectionENE (75.2 °)

Weather ElementTotal
Precipitation---
Cooling Degree Days20.1 (Base 65)
Growing Degree Days35.1 (Base 50)
Averaged from 27 records on July 6, 2013
WEATHER CONDITIONS BREAKOUT
WIND DIRECTION BREAKOUT
WEATHER BY HOUR - JULY 6, 2013
[ °C ]   °F
Local TimeTemperatureDewpointHumidityBarometerVisibilityWind DirectionWind SpeedGust SpeedPrecipitationEventsConditions
1:54 AM82.9 °F75.9 °F79 %29.81 in10.0 miESE (110°)4.6 mphPartly Cloudy
2:54 AM82.9 °F75.9 °F79 %29.81 in10.0 miEast (90°)4.6 mphClear
3:54 AM82.0 °F75.9 °F82 %29.81 in10.0 miEast (90°)4.6 mphScattered Clouds
4:54 AM82.0 °F75.0 °F79 %29.81 in10.0 miEast (80°)6.9 mphScattered Clouds
5:54 AM82.0 °F77.0 °F85 %29.83 in10.0 miENE (70°)5.8 mph0.00 inScattered Clouds
6:54 AM82.0 °F77.0 °F85 %29.85 in10.0 miEast (80°)5.8 mph0.00 inPartly Cloudy
7:54 AM82.9 °F73.9 °F74 %29.86 in10.0 miSE (130°)3.5 mph0.00 inScattered Clouds
8:54 AM87.1 °F75.0 °F67 %29.86 in10.0 miVariable6.9 mphPartly Cloudy
9:54 AM87.1 °F75.0 °F67 %29.87 in10.0 miEast (100°)8.1 mphPartly Cloudy
10:54 AM88.0 °F75.9 °F67 %29.85 in10.0 miSE (140°)8.1 mphPartly Cloudy
11:54 AM88.0 °F73.9 °F63 %29.84 in10.0 miESE (120°)9.2 mphPartly Cloudy
12:54 PM89.1 °F75.0 °F63 %29.83 in10.0 miVariable5.8 mphScattered Clouds
1:54 PM88.0 °F75.9 °F67 %29.82 in10.0 miEast (80°)8.1 mphPartly Cloudy
2:54 PM89.1 °F75.0 °F63 %29.82 in10.0 miEast (80°)9.2 mphScattered Clouds
3:54 PM86.0 °F75.0 °F70 %29.81 in10.0 miEast (90°)9.2 mphMostly Cloudy
4:40 PM86.0 °F75.2 °F70 %29.83 in10.0 miEast (100°)4.6 mphMostly Cloudy
4:54 PM86.0 °F75.9 °F72 %29.81 in10.0 miEast (90°)6.9 mphMostly Cloudy
5:16 PM86.0 °F75.2 °F70 %29.83 in10.0 miEast (80°)4.6 mphThunderstormThunderstorm
5:54 PM84.0 °F75.9 °F76 %29.82 in10.0 miWSW (240°)3.5 mph0.00 inScattered Clouds
6:54 PM84.0 °F75.9 °F76 %29.84 in10.0 miENE (60°)3.5 mphScattered Clouds
7:54 PM82.9 °F75.9 °F79 %29.86 in9.0 miSSE (160°)5.8 mph0.00 inRainLight Rain
8:03 PM82.4 °F77.0 °F84 %29.88 in10.0 miCalm0.00 inThunderstormThunderstorm
8:27 PM82.4 °F75.2 °F79 %29.88 in10.0 miCalm0.00 inThunderstormThunderstorm
8:54 PM81.0 °F75.9 °F85 %29.86 in10.0 miCalm0.00 inMostly Cloudy
9:54 PM81.0 °F75.0 °F82 %29.87 in10.0 miCalmScattered Clouds
10:54 PM82.0 °F75.0 °F79 %29.89 in10.0 miCalmScattered Clouds
11:54 PM81.0 °F75.9 °F85 %29.87 in10.0 miNE (40°)4.6 mphPartly Cloudy
Hourly data recorded from PGUM, located miles away from Dededo, Guam







STORIES FROM OUR PARTNERS